Zurück zum Katalog

CZ-6A DEB

AktivPO
NORAD 60675·DEBRIS·🇨🇳 China

Gestartet Aug 6, 2024 von Taiyuan Satellite Launch Center

Loading…

Nächste Überflüge (nächste 24 Stunden)

TLE

AktuellSource: Space-Track

Epoche: Sep 14, 2026, 07:52 UTC

1 60675U 24140CC  26257.32782413  .00000119  00000-0  57516-4 0  9996
2 60675  89.0084 267.0985 0081089 286.6271  72.6021 14.10899260108030

Verfolge CZ-6A DEB in Echtzeit mit AllMySat

Download on the App Store